EW9733 Weather Reports


time (UTC)temp
C
wind
direction
speed
KPH
gust
KPH
rain 1hr
cm
rain 24hr
cm
rain mn
cm
humidity
%
barometer
mb
20260905024505 18 91 0.0 0.0 0.00 0.00 0.00 87 1007.2
20260905023023 18 91 0.0 0.0 0.00 0.00 0.00 87 1007.3
20260905021506 18 91 0.0 0.0 0.00 0.00 0.00 87 1007.3
20260905020003 18 91 0.0 0.0 0.00 0.00 0.00 87 1007.5
20260905014503 19 91 0.0 0.0 0.00 0.00 0.00 86 1007.7
20260905013002 19 91 0.0 0.0 0.00 0.00 0.00 86 1007.6
20260905011503 20 91 0.0 0.0 0.00 0.00 0.00 85 1007.8
20260905010001 20 91 0.0 0.0 0.00 0.00 0.00 85 1007.9
20260905004502 20 91 0.0 0.0 0.00 0.00 0.00 84 1007.7
20260905003100 21 91 0.0 0.0 0.00 0.00 0.00 83 1007.6
20260905003001 21 91 0.0 0.0 0.00 0.00 0.00 83 1007.6
20260905001609 21 91 0.0 0.0 0.00 0.00 0.00 83 1007.5
20260905000116 21 91 0.0 0.0 0.00 0.00 0.00 81 1007.4
20260904234559 22 91 0.0 1.6 0.00 0.00 0.00 80 1007.2
20260904233058 22 91 0.0 1.6 0.00 0.00 0.00 78 1007.1
20260904231601 23 91 0.0 1.6 0.00 0.00 0.00 75 1007.0
20260904230057 23 49 0.0 3.2 0.00 0.00 0.00 74 1007.0
20260904224601 25 49 0.0 0.0 0.00 0.00 0.00 71 1006.9
20260904223055 25 49 0.0 1.6 0.00 0.00 0.00 69 1006.9
20260904221551 26 49 0.0 4.8 0.00 0.00 0.00 67 1006.7
20260904220109 26 49 0.0 3.2 0.00 0.00 0.00 63 1006.7
20260904214549 26 49 0.0 4.8 0.00 0.00 0.00 61 1006.5
20260904213049 26 11 0.0 1.6 0.00 0.00 0.00 62 1006.5
20260904211555 26 297 0.0 0.0 0.00 0.00 0.00 60 1006.4
20260904210100 26 298 0.0 1.6 0.00 0.00 0.00 61 1006.5
20260904204550 27 299 0.0 3.2 0.00 0.00 0.00 58 1006.4
20260904203047 27 42 0.0 6.4 0.00 0.00 0.00 55 1006.5
20260904201546 28 219 0.0 4.8 0.00 0.00 0.00 54 1006.6
20260904200046 27 318 0.0 4.8 0.00 0.00 0.00 59 1006.4
20260904194553 27 188 0.0 4.8 0.00 0.00 0.00 60 1006.6
20260904193044 27 43 1.6 8.0 0.00 0.00 0.00 55 1006.5
20260904191548 28 51 4.8 16.1 0.00 0.00 0.00 53 1006.5
20260904190042 27 76 0.0 3.2 0.00 0.00 0.00 59 1006.7
20260904184547 28 111 1.6 12.9 0.00 0.00 0.00 57 1006.6
20260904183042 27 32 1.6 9.7 0.00 0.00 0.00 55 1006.6
20260904181549 28 342 1.6 12.9 0.00 0.00 0.00 54 1006.7
20260904180038 28 32 0.0 4.8 0.00 0.00 0.00 56 1006.9
20260904174559 28 62 0.0 8.0 0.00 0.00 0.00 58 1006.8
20260904173037 28 286 4.8 14.5 0.00 0.00 0.00 57 1006.9
20260904171535 27 248 0.0 8.0 0.00 0.00 0.00 62 1007.1
20260904170031 27 327 0.0 4.8 0.00 0.00 0.00 65 1007.2
20260904164528 27 53 4.8 14.5 0.00 0.00 0.00 64 1007.3
20260904163027 26 249 0.0 9.7 0.00 0.00 0.00 65 1007.4
20260904161525 27 55 1.6 9.7 0.00 0.00 0.00 69 1007.6
20260904160024 26 279 1.6 8.0 0.00 0.00 0.00 65 1007.7
20260904154519 26 30 1.6 11.3 0.00 0.00 0.00 69 1007.8
20260904153023 25 266 1.6 6.4 0.00 0.00 0.00 71 1007.9
20260904151513 25 61 0.0 8.0 0.00 0.00 0.00 75 1007.9
20260904150011 25 65 3.2 8.0 0.00 0.00 0.00 73 1008.1
20260904144505 24 31 1.6 4.8 0.00 0.00 0.00 81 1008.1
20260904143001 23 49 0.0 9.7 0.00 0.00 0.00 87 1008.2
20260904141558 21 281 0.0 6.4 0.00 0.00 0.00 94 1008.3
20260904140054 20 27 0.0 1.6 0.00 0.00 0.00 95 1008.4
20260904134550 20 349 0.0 3.2 0.00 0.00 0.00 95 1008.6
20260904133055 20 66 0.0 4.8 0.00 0.00 0.00 95 1008.6
20260904131545 19 52 1.6 3.2 0.00 0.00 0.00 95 1008.6
20260904130043 19 58 0.0 3.2 0.00 0.00 0.00 95 1008.7
20260904124545 19 55 0.0 3.2 0.00 0.08 0.00 95 1008.7
20260904123103 19 55 0.0 1.6 0.00 0.08 0.00 95 1008.8
20260904121539 19 54 1.6 6.4 0.00 0.08 0.00 95 1008.7
20260904120039 18 111 0.0 1.6 0.00 0.08 0.00 95 1008.7
20260904114537 18 111 0.0 3.2 0.00 0.15 0.00 95 1008.7
20260904113047 18 138 0.0 0.0 0.00 0.15 0.00 94 1008.6
20260904111534 18 138 0.0 0.0 0.00 0.15 0.00 94 1008.5
20260904110038 18 138 0.0 0.0 0.00 0.15 0.00 94 1008.6
20260904104529 18 138 0.0 0.0 0.00 0.20 0.00 94 1008.5
20260904103027 18 138 0.0 0.0 0.00 0.20 0.00 94 1008.3
20260904101527 18 138 0.0 0.0 0.00 0.20 0.00 94 1008.3
20260904100025 18 138 0.0 0.0 0.00 0.20 0.00 94 1008.2
20260904094524 18 138 0.0 0.0 0.00 0.25 0.00 94 1008.3
20260904093025 18 138 0.0 0.0 0.00 0.25 0.00 94 1008.4
20260904091524 18 138 0.0 0.0 0.00 0.25 0.00 94 1008.1
20260904090023 18 138 0.0 0.0 0.00 0.25 0.00 94 1008.1
20260904084523 18 138 0.0 0.0 0.00 0.33 0.00 94 1008.2
20260904083024 18 138 0.0 0.0 0.00 0.33 0.00 94 1008.2
20260904081520 18 138 0.0 0.0 0.00 0.33 0.00 94 1008.3
20260904080018 18 138 0.0 0.0 0.00 0.33 0.00 94 1008.3
20260904074517 18 138 0.0 0.0 0.00 0.33 0.00 94 1008.5
20260904073016 18 138 0.0 3.2 0.00 0.33 0.00 94 1008.7
20260904071515 18 121 0.0 4.8 0.00 0.33 0.00 94 1008.7
20260904070027 18 101 0.0 0.0 0.00 0.33 0.00 94 1008.9
20260904064508 17 101 0.0 0.0 0.00 0.33 0.00 94 1008.8
20260904063012 17 101 0.0 0.0 0.00 0.33 0.00 94 1008.8
20260904061505 17 101 0.0 0.0 0.00 0.33 0.00 93 1009.0
20260904060004 17 101 0.0 0.0 0.00 0.33 0.00 93 1009.2
20260904054502 17 101 0.0 0.0 0.00 0.33 0.00 93 1009.5
20260904053100 17 101 0.0 0.0 0.00 0.33 0.00 93 1009.5
20260904051558 17 101 0.0 0.0 0.00 0.33 0.00 92 1009.7
20260904050056 17 101 0.0 0.0 0.00 0.33 0.00 92 1009.9
20260904044559 17 101 0.0 0.0 0.00 0.33 0.00 92 1009.9
20260904043057 17 101 0.0 0.0 0.00 0.33 0.00 92 1010.0
20260904041555 17 101 0.0 0.0 0.00 0.33 0.00 92 1010.0
20260904040050 17 101 0.0 0.0 0.00 0.33 0.00 92 1010.0
20260904034556 17 101 0.0 0.0 0.00 0.33 0.33 92 1010.2
20260904033050 18 101 0.0 0.0 0.00 0.33 0.33 91 1010.2
20260904031549 18 101 0.0 0.0 0.00 0.33 0.33 91 1010.2
20260904030049 18 101 0.0 0.0 0.00 0.33 0.33 91 1010.2